Погода в Ухае

Китай     39°40′49″N   106°49′17″E
темп.,
°C
ветер,
м/с
пор.,
м/с
влажн.,
%
обл.,
%
осадки,
мм/ч
давл.,
гПа
погр.,
м
19 января, вт
вт1923:00−4ююв23240 0.0 101721
02:00−6ю11280 0.0 101721
05:00−7юз11320 0.0 101821
08:00−8зюз12370 0.0 101921
11:00−2зсз22220 0.0 1019200
14:000з23200 0.0 1017619
17:00−1зюз23240 0.0 101727
20:00−4зюз34320 0.0 102126
20 января, ср
ср2023:00−4зюз45370 0.0 102347
02:00−7зюз34380 0.0 102429
05:00−9з12400 0.0 102423
08:00−9зюз12370 0.0 102623
11:00−3з032288 0.0 1025273
14:000ююз241989 0.0 1022576
17:000ююв232220 0.0 102129
20:00−3ююв332610 0.0 102322
21 января, чт
чт2123:00−4ю23290 0.0 102421
02:00−6зюз23340 0.0 102525
05:00−5з45320 0.0 102544
08:00−6зюз46300 0.0 102754
11:00−1з711250 0.0 1028492
14:00+1з78230 0.0 1024743
17:00+1зюз58260 0.0 1024293
20:00−3зюз34330 0.0 102633
22 января, пт
пт2223:00−4з23380 0.0 102624
02:00−6св00430 0.0 102521
05:00−7юв11440 0.0 102321
08:00−5ююв34390 0.0 102321
11:00+1ю35250 0.0 1022236
14:00+4ю44200 0.0 1017413
17:00+2ю11250 0.0 101624
20:00−2ююв01320 0.0 101822
23 января, сб
сб2323:00−4ююз11360 0.0 101822
02:00−5с11420 0.0 101721
05:00−7с12460 0.0 101621
08:00−7сз12440 0.0 101721
11:00−1ссз22290 0.0 1018105
14:00+4с12200 0.0 1015310
17:00+3с33240 0.0 101441
20:00−1ююв22320 0.0 101723